Location: Aytr�
(46.1357°N, 1.1145°W)
Time: 20:52:20
(UTC+00:00)

Cosmos 1869 Rocket - Pass Details

Date: 03 March 2021
Orbit: 605 x 633 km, 82.5° (Epoch: 20 April)

Event Time Altitude Azimuth Distance (km) Brightness Sun altitude
Rises 19:49:58 0° 185° (S) 2,857 6.9 -20.8°
Reaches altitude 10° 19:52:09 10° 185° (S) 1,961 6.0 -21.2°
Maximum altitude 19:56:30 83° 98° (E) 626 3.4 -21.9°
Drops below altitude 10° 20:00:55 10° 10° (N) 1,995 6.2 -22.7°
Sets 20:03:10 0° 10° (N) 2,911 7.1 -23.0°
